User: anonymous   Login
Location: Columbus
(29.5618°N, 96.6770°W)
Time: 14:22:24
(UTC-05:00)
Language:

Cosmos 2056 Rocket - Orbit

View from above orbital plane
View from above orbital plane
View from above satellite
View from above satellite

Ground track
Ground track

The orbit data is extracted from the following two-line orbital elements,

1 20433U 90004B   17178.93239233 +.00000038 +00000-0 +21882-4 0  9999
2 20433 074.0362 336.4334 0040042 103.3095 017.4890 14.35991297436465
Epoch (UTC): 27 June 2017 22:22:38
Eccentricity: 0.0040042
inclination: 74.0362°
perigee height: 743 km
apogee height: 800 km
right ascension of ascending node: 336.4334°
argument of perigee: 103.3095°
revolutions per day: 14.35991297
mean anomaly at epoch: 17.4890°
orbit number at epoch: 43646

The dashed part of the orbit path shows where the satellite is in the earth's shadow,  

DLR